Location: Biltmore Gardens
(41.6070°N, 83.4666°W)
Time: 14:25:45
(UTC+00:00)

Cosmos 1743 Rocket - Pass Details

Date: 14 July 2020
Orbit: 605 x 631 km, 82.6° (Epoch: 04 August)

Event Time Altitude Azimuth Distance (km) Brightness Sun altitude
Exits shadow 04:42:59 65° 33° (NNE) 671 3.7 -25.4°
Drops below altitude 10° 04:46:49 10° 10° (N) 1,978 7.0 -25.6°
Sets 04:49:03 0° 10° (N) 2,891 8.1 -25.7°
